Simultaneous Nadir Overpasses (SNOs) Predictions

Prediction of SNOs between GOES-14 and NOAA-20 Satellite Orbit:

Table of predicted SNOs for the next 14.0 days since TLE Epoch: 3/20/2021
Index Date Time (GOES-14) GOES-14 Lat,Lon NOAA-20 Lat,Lon Distance(km) Time Diff (sec)
1 03/20/2021 08:07:40 0.09,-104.42 -0.78,-100.41 456.27 80
2 03/21/2021 20:29:37 -0.10,-104.31 -0.40,-105.73 160.71 80
3 03/22/2021 20:08:12 -0.10,-104.30 0.58,-101.19 353.79 80
4 03/24/2021 08:30:02 0.11,-104.39 0.56,-106.48 237.92 80
5 03/25/2021 08:13:57 0.11,-104.39 -0.42,-101.94 278.13 80
6 03/26/2021 20:35:54 -0.12,-104.30 -0.75,-107.25 336.19 80
7 03/27/2021 20:14:30 -0.11,-104.29 0.24,-102.72 178.29 80
8 03/29/2021 08:36:19 0.12,-104.35 0.91,-108.01 416.11 80
9 03/30/2021 08:20:15 0.11,-104.35 -0.08,-103.47 99.95 80
10 04/01/2021 20:20:48 -0.12,-104.27 -0.10,-104.25 2.73 80
